Dewpoint
50 50 47 47 47 44 47 44 45 46 46 47 47 47 47 47 47 45 42 40 49 52 53 47 48 50 52 52 51 46 39 36 35 31 36 42 41 44 44 44 45 46 46 46 62
48 50 48 46 47 43 46 44 45 45 45 46 46 46 47 48 42 38 41 46 48 50 50 47 45 48 47 49 49 44 39 37 36 35 39 42 40 42 41 41 43 43 43 49 63
44 47 48 47 45 45 46 44 45 45 45 46 45 47 48 47 39 34 48 49 46 49 53 49 47 46 42 46 49 44 40 38 37 40 41 41 43 44 39 39 42 42 43 44 51
47 44 45 48 48 45 44 46 46 45 45 45 44 45 46 44 28 41 45 47 48 50 50 49 48 44 37 44 48 43 41 39 39 41 41 39 42 41 41 40 44 45 44 44 47
47 47 45 45 48 45 44 45 46 45 45 45 45 45 42 36 33 40 43 42 45 50 46 48 45 42 34 39 44 45 42 43 39 42 41 41 40 40 40 41 45 44 44 44 44
48 47 46 45 45 47 45 46 45 45 45 45 44 46 38 29 37 38 41 40 42 48 45 49 45 41 34 36 42 42 43 43 43 44 41 40 39 44 38 42 43 43 43 44 44
48 47 46 45 45 44 47 46 46 46 45 44 44 43 38 29 36 39 41 40 42 46 44 48 49 41 36 36 38 39 40 42 44 43 41 42 40 40 38 40 42 42 41 43 43
48 47 46 46 44 43 46 48 46 47 46 44 45 41 32 38 39 40 39 40 42 47 45 50 49 44 36 39 39 35 37 36 40 43 42 44 34 37 38 42 40 40 40 42 42
48 47 45 46 45 42 45 48 47 46 46 46 42 39 30 42 35 37 38 39 41 43 47 50 47 42 41 34 33 35 26 30 36 41 42 41 33 37 41 42 39 39 37 38 40
47 47 46 45 45 43 45 47 44 46 42 42 40 37 34 29 36 38 39 42 39 43 42 42 39 38 35 31 25 27 26 27 31 41 41 40 38 36 41 41 35 36 36 37 39
46 46 46 45 45 44 46 38 36 34 37 30 29 30 31 36 42 38 40 38 41 41 37 40 33 34 30 29 24 25 27 29 31 40 40 39 39 39 38 42 39 37 35 36 39
45 46 46 44 44 45 45 33 33 36 31 34 33 34 35 38 37 36 42 36 39 35 37 35 32 35 34 32 30 28 26 27 33 40 39 37 37 39 38 40 41 38 34 36 38
45 46 44 44 43 44 40 35 43 41 33 35 38 37 37 41 36 37 42 39 38 36 33 31 35 38 34 30 30 28 26 30 29 40 38 36 34 36 38 38 39 40 36 33 36
45 44 45 45 42 41 37 40 43 42 30 32 36 38 40 40 35 42 45 40 38 34 34 35 38 37 34 29 29 30 31 32 35 31 24 33 16 24 30 35 37 37 38 37 39
44 45 45 44 42 39 40 43 43 39 21 33 37 43 40 35 36 38 45 39 33 35 36 33 36 37 33 31 29 30 32 30 31 24 25 27 22 18 27 27 29 33 34 37 38
44 45 45 41 43 42 43 43 39 29 21 33 37 36 34 35 36 37 39 40 37 34 37 38 39 35 33 35 32 31 30 29 29 26 22 21 23 17 21 23 24 29 32 34 35
46 46 43 43 39 44 44 40 29 24 31 30 33 36 35 34 34 35 33 33 31 27 29 36 35 37 37 32 31 30 27 24 21 23 18 24 25 17 25 25 26 25 26 29 32
46 44 45 45 45 45 42 31 24 27 31 35 34 37 33 35 35 35 32 32 36 34 30 29 27 35 36 31 30 30 24 20 15 15 16 24 20 18 25 27 27 26 25 26 27
45 44 43 45 45 44 38 29 27 29 35 31 33 29 34 36 35 35 34 33 35 36 29 30 29 38 37 35 31 30 27 24 22 20 20 18 22 22 23 24 23 21 22 22 24
42 42 42 46 46 43 35 30 33 30 34 36 30 34 29 33 33 34 33 35 34 37 35 32 29 36 36 36 34 31 29 24 27 19 14 16 16 10 18 20 21 21 22 24 25
42 38 43 46 45 40 31 32 33 34 34 30 31 33 32 33 33 32 33 35 37 36 35 31 30 33 35 34 33 30 29 29 26 24 18 12 10 19 20 21 22 22 25 28 30
41 35 44 45 37 38 34 33 35 33 33 30 34 32 34 34 31 30 32 36 39 35 32 31 32 30 32 35 36 32 29 28 22 23 24 21 18 22 22 22 22 25 27 30 34
38 37 44 44 31 32 33 33 34 33 31 30 30 29 28 31 31 33 31 35 38 33 31 30 29 27 28 30 33 33 32 29 29 28 26 21 17 23 22 22 25 28 29 30 35
36 33 37 41 39 33 33 33 32 35 32 30 30 28 27 28 30 30 33 33 36 36 35 32 28 26 21 25 28 28 30 32 30 27 24 24 23 23 24 26 27 29 30 29 32
31 31 33 32 31 32 34 32 33 32 34 33 30 30 27 26 28 29 33 33 35 36 35 32 29 27 25 29 31 30 29 29 30 28 26 25 25 25 27 29 30 31 31 30 30
24 28 28 25 26 31 31 31 31 31 34 31 31 32 30 29 30 28 30 31 34 34 35 32 28 27 25 26 27 27 28 29 30 29 28 28 27 30 30 31 30 30 30 31 31
32 33 26 23 26 29 25 28 33 33 35 36 36 33 33 34 35 36 34 30 31 33 33 32 29 27 24 24 23 21 23 25 27 30 29 27 27 29 29 29 31 31 31 31 32
Wind_Speed
18 12 13 15 16 16 13 14 14 12 11 10 9 8 7 6 8 6 12 8 9 17 9 15 17 13 7 6 10 11 13 23 17 21 12 10 7 1 2 14 15 7 7 5 4
17 18 12 13 14 13 13 12 11 11 10 8 8 8 8 5 5 10 7 13 15 13 12 15 21 18 16 11 9 15 21 26 22 7 13 8 9 8 6 10 12 12 13 11 6
15 17 16 10 12 11 11 10 9 9 8 8 9 9 8 3 5 6 5 8 15 11 7 8 17 19 22 17 8 21 22 25 23 13 9 9 7 3 10 8 8 9 10 13 6
15 14 16 17 11 9 9 10 8 7 7 6 8 9 8 3 3 4 8 8 6 9 3 7 13 21 20 16 13 16 25 22 20 8 8 6 6 2 3 4 6 3 4 8 12
14 15 14 15 15 10 9 8 9 7 7 7 6 7 3 5 6 3 9 6 1 5 12 11 18 20 24 25 24 17 23 14 19 12 15 15 11 9 12 9 5 2 1 4 9
13 14 14 13 14 15 10 10 8 7 7 7 7 5 3 7 2 6 9 8 2 15 18 7 14 15 21 20 25 23 11 16 15 10 8 11 11 10 18 7 6 5 4 2 5
14 15 15 12 13 13 13 8 10 7 7 8 6 3 6 9 2 7 6 4 4 10 14 11 8 8 15 16 16 11 23 17 14 20 7 12 16 22 28 14 10 10 8 6 5
16 14 16 13 11 12 13 13 9 8 8 7 3 3 6 2 6 8 5 6 7 11 15 6 6 5 13 8 14 16 19 15 18 26 15 19 26 25 17 14 18 16 15 9 8
16 14 15 15 11 13 13 13 10 9 5 5 3 4 6 1 4 9 5 4 12 5 12 5 5 7 8 21 16 18 21 27 15 22 13 24 14 5 12 19 18 18 20 16 12
17 15 15 16 11 13 13 12 3 1 2 2 3 6 4 6 6 7 7 7 8 14 10 5 3 13 17 21 27 23 19 26 18 16 17 19 14 3 10 16 17 19 19 18 17
16 15 14 14 12 13 7 1 3 3 4 4 2 5 7 4 6 3 3 6 5 16 7 7 3 17 26 22 4 19 14 20 16 13 17 15 16 17 6 11 15 15 15 20 18
17 15 14 14 13 12 2 3 1 2 1 3 7 8 9 2 1 5 1 4 8 15 14 6 3 7 14 12 8 20 21 17 7 12 16 16 19 19 18 13 15 17 21 23 20
16 14 15 14 12 3 3 1 4 2 1 1 2 4 4 2 2 1 0 2 3 10 12 11 1 14 20 15 17 20 22 17 13 12 4 7 15 22 21 19 16 23 22 18 18
16 15 15 11 4 1 2 4 4 2 1 2 1 1 2 3 4 4 4 2 5 14 12 2 5 17 26 16 17 17 12 15 18 13 8 11 6 14 21 22 27 24 22 22 14
17 16 13 5 2 2 1 5 3 2 0 2 1 3 2 3 2 3 5 3 10 13 7 7 18 15 26 16 8 5 14 13 10 9 4 9 8 12 6 22 25 20 22 22 21
17 15 2 5 4 1 6 5 2 2 4 1 1 1 2 2 2 5 4 5 10 8 5 6 17 5 7 7 1 17 16 12 7 6 8 13 13 5 7 7 10 13 19 21 23
13 4 6 4 3 3 5 2 0 5 1 0 1 3 4 4 4 3 5 7 5 9 3 8 11 6 2 11 11 11 21 8 7 7 7 2 10 12 5 5 6 5 7 11 18
2 3 2 2 2 5 2 2 6 1 2 0 1 3 3 3 3 4 5 5 1 3 5 4 6 11 5 13 10 18 13 5 7 8 7 3 7 1 4 7 11 9 12 11 13
4 1 1 4 2 1 3 2 3 1 2 2 2 3 2 5 4 3 3 5 4 1 5 5 4 1 2 3 7 7 8 2 5 2 2 5 3 13 11 6 9 6 7 9 9
3 2 2 3 2 1 1 2 1 3 1 2 3 3 2 4 2 3 2 1 6 2 2 4 8 6 5 4 9 6 12 5 1 5 5 2 4 4 10 9 3 9 10 10 10
3 3 2 1 2 3 1 1 2 3 2 1 4 3 2 3 5 3 2 2 3 3 2 2 2 3 8 4 10 5 6 1 1 1 2 2 2 2 5 5 6 8 10 12 12
4 2 1 1 1 1 0 1 3 3 1 1 3 4 1 2 5 3 3 3 5 8 3 3 5 7 4 1 2 4 8 15 11 6 4 3 6 3 5 4 3 5 9 7 6
5 3 0 1 1 1 1 1 2 2 2 1 2 2 1 1 3 4 3 3 4 4 6 7 5 8 3 1 1 6 9 10 6 2 9 10 5 1 1 4 2 10 15 10 2
5 5 1 2 2 2 2 2 3 2 3 3 2 1 1 2 2 5 5 4 3 2 4 1 3 3 10 2 6 10 16 14 13 10 18 20 21 15 14 16 22 22 17 12 8
1 3 2 6 6 3 2 2 2 3 4 6 3 3 1 1 2 5 4 4 3 3 2 1 4 2 4 4 3 2 12 18 21 26 20 25 23 26 20 19 23 25 20 14 11
6 6 3 3 3 5 1 2 3 3 4 4 5 6 1 4 4 2 5 4 4 2 2 2 3 2 2 2 2 6 11 11 18 24 26 30 31 25 25 17 18 19 19 19 18
3 2 2 3 4 6 4 2 3 1 4 7 1 3 8 5 2 5 5 3 2 6 4 3 6 3 2 2 3 8 11 14 9 10 13 24 27 21 20 23 22 22 21 20 19
Wind_Direction
347 354 356 355 358 355 359 358 359 357 5 12 9 355 339 322 300 237 244 257 219 264 288 216 210 214 207 219 207 200 190 197 199 198 152 152 140 75 54 106 77 84 69 328 336
343 346 350 357 351 354 358 356 1 4 8 14 3 347 342 351 288 246 267 265 252 257 241 204 199 194 208 182 196 191 195 204 195 190 164 146 131 126 143 129 101 86 60 58 103
347 339 346 347 345 355 354 353 2 7 8 4 356 347 337 299 230 215 335 309 242 221 290 250 214 190 211 190 205 194 195 196 190 128 150 153 116 121 142 139 94 72 47 38 62
344 344 339 339 346 344 349 341 353 353 8 357 355 349 338 262 263 159 345 351 308 159 200 224 207 192 198 195 188 188 203 191 185 159 170 211 139 167 213 106 135 41 49 37 39
339 339 341 336 335 337 331 335 332 346 342 338 335 330 313 256 263 359 330 324 334 136 226 249 197 195 195 194 191 198 199 208 203 209 210 228 238 253 244 247 229 200 275 12 38
336 337 335 336 334 335 327 319 315 317 319 321 327 327 281 271 88 317 324 308 161 185 204 249 199 193 195 189 192 197 170 187 189 179 196 217 225 220 246 235 212 236 264 330 24
332 336 332 337 327 323 319 311 303 305 293 294 311 296 267 264 300 323 299 264 237 177 212 247 245 189 166 177 197 180 192 192 189 208 241 234 221 225 236 222 226 251 266 272 285
324 333 329 327 324 318 312 315 296 295 292 277 315 282 272 280 279 292 290 251 222 159 203 264 287 221 180 157 156 173 194 187 187 194 203 209 238 231 238 218 237 247 257 254 260
330 332 330 325 327 320 312 302 305 284 270 260 256 271 279 298 314 315 258 239 180 171 186 96 351 178 155 163 157 177 194 203 176 196 166 202 238 295 186 210 235 248 241 244 250
327 327 321 322 330 320 308 307 282 210 112 184 235 272 234 338 331 298 269 243 194 157 170 118 316 168 169 173 183 182 197 192 187 196 203 202 217 320 216 226 233 236 242 251 239
325 328 321 326 329 317 313 261 188 168 202 236 311 278 288 343 286 254 311 182 141 157 175 99 191 166 177 186 179 191 189 188 181 174 193 209 226 244 269 233 234 230 249 244 232
323 327 321 325 321 312 285 254 63 92 302 232 254 261 273 223 285 331 96 192 181 154 119 109 199 227 182 174 176 175 187 184 148 175 200 206 228 234 231 234 226 229 235 236 217
319 321 322 314 317 265 228 207 144 184 247 233 267 286 300 240 67 231 52 81 178 129 159 149 86 206 163 162 166 183 182 172 151 156 179 202 244 238 233 236 240 238 242 249 247
318 319 312 314 282 228 206 153 137 236 214 63 167 232 264 262 71 66 52 38 73 113 117 97 212 200 173 149 160 173 183 156 148 163 187 205 247 219 231 227 234 237 244 250 251
318 314 311 265 296 212 95 157 162 211 13 9 4 330 332 24 86 38 169 189 139 133 138 203 170 193 163 156 165 139 170 164 167 193 213 201 248 245 224 226 237 237 243 248 244
324 321 263 180 223 252 156 173 233 226 44 315 94 102 94 38 132 144 113 84 117 148 93 111 170 165 131 140 88 136 127 127 140 191 242 227 224 236 231 262 247 243 241 239 252
342 358 152 189 165 158 173 229 144 42 249 103 164 179 179 184 121 118 107 120 145 148 271 117 142 156 166 141 147 164 150 135 174 203 231 89 220 250 244 262 242 303 286 256 254
9 117 81 304 277 158 234 243 65 164 280 18 216 159 110 120 72 103 144 129 44 68 138 170 144 165 174 179 178 180 183 172 180 197 203 160 231 237 270 292 267 275 274 274 254
139 130 29 27 107 319 277 46 102 185 41 299 254 354 93 127 129 143 145 133 127 183 174 160 125 61 108 139 183 178 200 26 99 83 210 195 222 267 249 251 262 290 291 285 283
174 153 29 324 307 284 277 102 130 225 293 208 353 4 30 100 111 133 139 75 136 154 230 121 104 163 154 146 54 206 150 176 93 176 223 160 256 243 139 147 7 358 349 329 305
174 132 8 355 255 263 26 86 293 245 240 41 42 17 81 61 76 88 77 75 110 111 45 194 119 103 178 208 181 142 186 122 216 271 260 295 161 135 219 174 344 347 354 344 326
162 159 88 322 286 245 186 174 285 314 59 113 85 45 92 78 80 79 97 85 135 147 158 235 121 141 106 105 236 213 220 213 225 212 225 282 253 195 224 285 279 8 18 358 338
139 116 84 321 208 177 266 203 249 335 25 113 122 254 330 176 103 113 94 33 162 195 187 180 138 118 108 350 222 211 201 208 206 35 219 246 232 8 250 220 266 309 325 322 246
152 137 140 220 288 239 165 91 135 28 45 50 19 279 195 83 43 133 111 68 169 100 87 104 109 206 201 158 165 206 207 205 205 231 244 239 257 253 247 270 297 311 319 316 269
129 156 140 171 212 191 146 94 119 96 29 32 78 12 73 99 98 113 109 108 73 0 65 60 124 115 97 104 148 213 216 216 219 235 246 259 263 266 278 291 291 294 291 296 273
161 155 134 123 168 178 96 109 109 63 20 47 91 36 102 89 17 96 144 160 185 162 95 50 117 131 92 42 248 255 240 238 238 247 249 256 268 279 286 292 293 294 293 291 269
135 88 171 147 168 171 150 137 129 326 94 66 333 120 66 50 357 339 317 353 131 153 146 148 143 147 192 302 267 258 246 231 238 251 256 254 263 290 300 302 301 298 290 282 281